NKS2254 KFLL-KEWR

Flight info

Callsign NKS2254
Flight time N/A
Altitude 37000
Route FEALX2 ETECK GRUBR Y299 SEELO GARIC Q129 AARNN QUART PHLBO4
Aircraft A319/M-SDE3FGHIRWY/LB1

Departure

Time 2026-05-03 22:25
Airport Fort Lauderdale Hollywood International Airport (KFLL)

Arrival

Time N/A
Airport Newark Liberty International Airport (KEWR)
Time Latitude Longitude Altitude Speed Heading
2026-05-03 21:46 26.06884 -80.14341 16 ft 0 kts 359°
2026-05-03 21:55 26.06881 -80.14341 16 ft 2 kts 359°
2026-05-03 21:55 26.06855 -80.14341 17 ft 4 kts 359°
2026-05-03 21:56 26.06828 -80.14340 17 ft 4 kts 359°
2026-05-03 21:56 26.06801 -80.14340 18 ft 4 kts 359°
2026-05-03 21:56 26.06798 -80.14340 16 ft 0 kts 359°
2026-05-03 21:58 26.06804 -80.14342 16 ft 1 kts 343°
2026-05-03 21:58 26.06811 -80.14354 17 ft 3 kts 298°
2026-05-03 21:59 26.06816 -80.14380 16 ft 4 kts 277°
2026-05-03 21:59 26.06816 -80.14399 16 ft 1 kts 272°
2026-05-03 21:59 26.06817 -80.14406 16 ft 2 kts 271°
2026-05-03 21:59 26.06817 -80.14421 16 ft 2 kts 271°
2026-05-03 22:00 26.06817 -80.14443 16 ft 3 kts 271°
2026-05-03 22:00 26.06818 -80.14466 16 ft 2 kts 270°
2026-05-03 22:00 26.06818 -80.14493 16 ft 3 kts 270°
2026-05-03 22:00 26.06818 -80.14512 16 ft 4 kts 269°
2026-05-03 22:01 26.06813 -80.14550 25 ft 6 kts 253°
2026-05-03 22:01 26.06781 -80.14593 15 ft 9 kts 224°
2026-05-03 22:01 26.06766 -80.14663 15 ft 11 kts 269°
2026-05-03 22:01 26.06766 -80.14762 15 ft 14 kts 270°
2026-05-03 22:02 26.06766 -80.14877 15 ft 16 kts 270°
2026-05-03 22:02 26.06767 -80.15007 16 ft 18 kts 271°
2026-05-03 22:02 26.06765 -80.15113 16 ft 11 kts 255°
2026-05-03 22:02 26.06705 -80.15144 20 ft 10 kts 207°
2026-05-03 22:03 26.06695 -80.15215 21 ft 10 kts 271°
2026-05-03 22:03 26.06695 -80.15302 16 ft 12 kts 271°
2026-05-03 22:03 26.06697 -80.15369 16 ft 0 kts 271°
2026-05-03 22:03 26.06697 -80.15373 16 ft 0 kts 271°
2026-05-03 22:05 26.06697 -80.15374 16 ft 0 kts 271°
2026-05-03 22:05 26.06697 -80.15380 16 ft 1 kts 271°
2026-05-03 22:05 26.06697 -80.15383 16 ft 0 kts 271°
2026-05-03 22:05 26.06697 -80.15386 16 ft 0 kts 271°
2026-05-03 22:06 26.06697 -80.15390 16 ft 2 kts 271°
2026-05-03 22:06 26.06697 -80.15414 16 ft 4 kts 270°
2026-05-03 22:06 26.06697 -80.15453 16 ft 6 kts 270°
2026-05-03 22:07 26.06697 -80.15477 16 ft 0 kts 270°
2026-05-03 22:09 26.06697 -80.15483 16 ft 0 kts 270°
2026-05-03 22:10 26.06697 -80.15489 16 ft 2 kts 270°
2026-05-03 22:10 26.06697 -80.15510 16 ft 3 kts 270°
2026-05-03 22:10 26.06697 -80.15543 16 ft 5 kts 270°
2026-05-03 22:10 26.06698 -80.15563 16 ft 0 kts 271°
2026-05-03 22:15 26.06698 -80.15567 16 ft 1 kts 271°
2026-05-03 22:15 26.06698 -80.15569 16 ft 0 kts 271°
2026-05-03 22:16 26.06698 -80.15571 16 ft 0 kts 271°
2026-05-03 22:18 26.06698 -80.15572 16 ft 0 kts 271°
2026-05-03 22:18 26.06698 -80.15579 16 ft 2 kts 271°
2026-05-03 22:19 26.06698 -80.15614 16 ft 6 kts 270°
2026-05-03 22:19 26.06698 -80.15663 16 ft 2 kts 270°
2026-05-03 22:19 26.06698 -80.15674 16 ft 3 kts 271°
2026-05-03 22:19 26.06697 -80.15709 16 ft 6 kts 259°
2026-05-03 22:20 26.06686 -80.15731 16 ft 2 kts 232°
2026-05-03 22:20 26.06685 -80.15732 17 ft 0 kts 232°
2026-05-03 22:22 26.06685 -80.15733 19 ft 0 kts 232°
2026-05-03 22:23 26.06683 -80.15735 16 ft 1 kts 228°
2026-05-03 22:23 26.06665 -80.15741 18 ft 4 kts 191°
2026-05-03 22:24 26.06623 -80.15744 19 ft 7 kts 183°
2026-05-03 22:24 26.06589 -80.15713 22 ft 4 kts 99°
2026-05-03 22:24 26.06589 -80.15683 22 ft 13 kts 91°
2026-05-03 22:24 26.06586 -80.15338 22 ft 77 kts 90°
2026-05-03 22:25 26.06581 -80.14513 42 ft 134 kts 90°
2026-05-03 22:25 26.06578 -80.13329 309 ft 159 kts 88°
2026-05-03 22:25 26.06588 -80.12118 1056 ft 155 kts 86°
2026-05-03 22:25 26.06592 -80.10913 1696 ft 157 kts 88°
2026-05-03 22:26 26.06599 -80.09634 2057 ft 176 kts 88°
2026-05-03 22:26 26.06615 -80.08207 2459 ft 192 kts 88°
2026-05-03 22:26 26.06635 -80.06674 2912 ft 204 kts 89°
2026-05-03 22:26 26.06652 -80.05018 3262 ft 225 kts 89°
2026-05-03 22:27 26.06668 -80.03177 3628 ft 250 kts 89°
2026-05-03 22:27 26.06755 -80.01164 4143 ft 271 kts 79°
2026-05-03 22:27 26.07481 -79.99182 4816 ft 285 kts 56°
2026-05-03 22:27 26.08670 -79.97402 5660 ft 290 kts 49°
2026-05-03 22:28 26.10008 -79.95696 6517 ft 295 kts 45°
2026-05-03 22:28 26.11420 -79.94010 7335 ft 300 kts 45°
2026-05-03 22:28 26.12820 -79.92325 8165 ft 304 kts 46°
2026-05-03 22:28 26.14266 -79.90524 9025 ft 309 kts 47°
2026-05-03 22:29 26.15678 -79.88703 9876 ft 313 kts 48°
2026-05-03 22:29 26.17060 -79.86782 10385 ft 329 kts 51°
2026-05-03 22:29 26.18453 -79.84694 10641 ft 351 kts 53°
2026-05-03 22:29 26.19894 -79.82447 11170 ft 361 kts 53°
2026-05-03 22:30 26.21350 -79.80143 11848 ft 366 kts 53°
2026-05-03 22:30 26.22831 -79.77806 12496 ft 372 kts 53°
2026-05-03 22:30 26.24346 -79.75441 13144 ft 377 kts 53°
2026-05-03 22:30 26.25889 -79.73052 13810 ft 382 kts 53°
2026-05-03 22:31 26.27458 -79.70641 14385 ft 386 kts 52°
2026-05-03 22:31 26.29060 -79.68223 14960 ft 390 kts 49°
2026-05-03 22:31 26.30904 -79.66002 15521 ft 393 kts 43°
2026-05-03 22:31 26.32824 -79.63813 16094 ft 397 kts 43°
2026-05-03 22:32 26.34761 -79.61591 16663 ft 401 kts 43°
2026-05-03 22:32 26.36709 -79.59346 17223 ft 405 kts 43°
2026-05-03 22:32 26.38676 -79.57076 17789 ft 409 kts 43°
2026-05-03 22:32 26.40663 -79.54781 18342 ft 413 kts 43°
2026-05-03 22:33 26.42672 -79.52461 18813 ft 417 kts 43°
2026-05-03 22:33 26.44698 -79.50126 19287 ft 421 kts 43°
2026-05-03 22:33 26.46747 -79.47765 19770 ft 425 kts 43°
2026-05-03 22:33 26.48817 -79.45379 20268 ft 430 kts 43°
2026-05-03 22:34 26.50906 -79.42969 20716 ft 435 kts 43°
2026-05-03 22:34 26.53023 -79.40524 21173 ft 439 kts 43°
2026-05-03 22:34 26.55239 -79.38177 21636 ft 440 kts 35°
2026-05-03 22:34 26.57754 -79.36233 22100 ft 439 kts 27°
2026-05-03 22:35 26.60379 -79.34459 22558 ft 443 kts 27°
2026-05-03 22:35 26.63027 -79.32667 23014 ft 447 kts 27°
2026-05-03 22:35 26.65705 -79.30848 23449 ft 451 kts 27°
2026-05-03 22:35 26.68396 -79.29014 23830 ft 455 kts 27°
2026-05-03 22:36 26.71116 -79.27155 24199 ft 458 kts 27°
2026-05-03 22:36 26.73840 -79.25293 24574 ft 461 kts 27°
2026-05-03 22:36 26.76587 -79.23418 24959 ft 463 kts 27°
2026-05-03 22:36 26.79353 -79.21533 25308 ft 467 kts 27°
2026-05-03 22:37 26.82137 -79.19637 25666 ft 470 kts 27°
2026-05-03 22:37 26.84935 -79.17729 26026 ft 473 kts 26°
2026-05-03 22:37 26.87753 -79.15804 26388 ft 476 kts 26°
2026-05-03 22:37 26.90587 -79.13868 26756 ft 479 kts 26°
2026-05-03 22:38 26.93441 -79.11918 27124 ft 482 kts 26°
2026-05-03 22:38 26.96308 -79.09958 27471 ft 484 kts 26°
2026-05-03 22:38 26.99153 -79.08010 27812 ft 487 kts 26°
2026-05-03 22:38 27.02059 -79.06017 28160 ft 490 kts 26°
2026-05-03 22:39 27.04971 -79.04018 28607 ft 490 kts 26°
2026-05-03 22:39 27.07902 -79.02013 28840 ft 497 kts 26°
2026-05-03 22:39 27.10867 -78.99984 29094 ft 501 kts 26°
2026-05-03 22:39 27.13850 -78.97935 29410 ft 504 kts 26°
2026-05-03 22:40 27.16855 -78.95864 29738 ft 507 kts 26°
2026-05-03 22:40 27.19870 -78.93782 30059 ft 510 kts 26°
2026-05-03 22:40 27.22906 -78.91686 30336 ft 513 kts 26°
2026-05-03 22:40 27.25951 -78.89585 30598 ft 515 kts 26°
2026-05-03 22:41 27.29015 -78.87475 30881 ft 518 kts 26°
2026-05-03 22:41 27.31096 -78.86044 31080 ft 520 kts 26°
2026-05-03 22:41 27.34149 -78.83940 31364 ft 522 kts 26°
2026-05-03 22:41 27.37280 -78.81871 31642 ft 521 kts 21°
2026-05-03 22:42 27.40587 -78.80268 31919 ft 515 kts 12°
2026-05-03 22:42 27.44011 -78.79232 32264 ft 505 kts
2026-05-03 22:42 27.47504 -78.78667 32629 ft 499 kts 359°
2026-05-03 22:42 27.50951 -78.78171 32996 ft 499 kts 359°
2026-05-03 22:43 27.54347 -78.77674 33366 ft 499 kts 359°
2026-05-03 22:43 27.57828 -78.77159 33747 ft 498 kts 359°
2026-05-03 22:43 27.61264 -78.76651 34160 ft 498 kts 358°
2026-05-03 22:43 27.64659 -78.76151 34479 ft 498 kts 358°
2026-05-03 22:44 27.68095 -78.75647 34786 ft 498 kts 358°
2026-05-03 22:44 27.71528 -78.75145 34989 ft 499 kts 358°
2026-05-03 22:44 27.74989 -78.74643 35051 ft 505 kts 358°
2026-05-03 22:45 27.82044 -78.73622 35051 ft 513 kts 358°
2026-05-03 22:45 27.89143 -78.72571 35056 ft 515 kts 358°
2026-05-03 22:46 27.96256 -78.71508 35059 ft 516 kts 358°
2026-05-03 22:46 28.03384 -78.70456 35062 ft 516 kts 357°
2026-05-03 22:47 28.10514 -78.69415 35065 ft 517 kts 358°
2026-05-03 22:47 28.17649 -78.68359 35062 ft 517 kts 358°
2026-05-03 22:48 28.24778 -78.67302 35062 ft 517 kts 357°
2026-05-03 22:48 28.31911 -78.66239 35066 ft 517 kts 357°
2026-05-03 22:49 28.39041 -78.65166 35072 ft 517 kts 357°
2026-05-03 22:49 28.46170 -78.64110 35075 ft 517 kts 357°
2026-05-03 22:50 28.53306 -78.63061 35070 ft 516 kts 357°
2026-05-03 22:50 28.60430 -78.62000 35076 ft 517 kts 357°
2026-05-03 22:51 28.67560 -78.60924 35082 ft 517 kts 357°
2026-05-03 22:51 28.74645 -78.59861 35081 ft 516 kts 357°
2026-05-03 22:52 28.81776 -78.58805 35080 ft 516 kts 356°
2026-05-03 22:52 28.88895 -78.57741 35088 ft 516 kts 356°
2026-05-03 22:53 28.96023 -78.56664 35087 ft 517 kts 357°
2026-05-03 22:53 29.03163 -78.55583 35092 ft 516 kts 356°
2026-05-03 22:54 29.10280 -78.54518 35088 ft 516 kts 356°
2026-05-03 22:54 29.17403 -78.53458 35097 ft 516 kts 356°
2026-05-03 22:55 29.24529 -78.52377 35100 ft 516 kts 356°
2026-05-03 22:55 29.31659 -78.51289 35100 ft 516 kts 356°
2026-05-03 22:56 29.38774 -78.50211 35103 ft 514 kts 356°
2026-05-03 22:56 29.45864 -78.49146 35107 ft 514 kts 356°
2026-05-03 22:56 29.49385 -78.48894 35108 ft 499 kts 347°
2026-05-03 22:57 29.52806 -78.49173 35109 ft 491 kts 342°
2026-05-03 22:57 29.59603 -78.49915 35111 ft 491 kts 342°
2026-05-03 22:58 29.66396 -78.50653 35108 ft 490 kts 343°
2026-05-03 22:58 29.73176 -78.51382 35118 ft 489 kts 343°
2026-05-03 22:59 29.79906 -78.52109 35121 ft 489 kts 343°
2026-05-03 22:59 29.86684 -78.52837 35123 ft 489 kts 343°
2026-05-03 23:00 29.93462 -78.53576 35115 ft 490 kts 343°
2026-05-03 23:00 30.00253 -78.54320 35125 ft 490 kts 343°
2026-05-03 23:01 30.07052 -78.55062 35129 ft 491 kts 343°
2026-05-03 23:01 30.13854 -78.55765 35126 ft 496 kts 347°
2026-05-03 23:01 30.17354 -78.55595 35128 ft 511 kts 356°
2026-05-03 23:02 30.20889 -78.55089 35128 ft 512 kts 356°
2026-05-03 23:02 30.27965 -78.54059 35133 ft 512 kts 356°
2026-05-03 23:03 30.35037 -78.53037 35136 ft 512 kts 356°
2026-05-03 23:03 30.42109 -78.52028 35136 ft 512 kts 356°
2026-05-03 23:04 30.49200 -78.50939 35123 ft 517 kts 357°
2026-05-03 23:04 30.56351 -78.49754 35135 ft 520 kts 357°
2026-05-03 23:05 30.63511 -78.48567 35139 ft 520 kts 357°
2026-05-03 23:05 30.70679 -78.47394 35138 ft 520 kts 357°
2026-05-03 23:06 30.77833 -78.46229 35127 ft 517 kts 357°
2026-05-03 23:06 30.84954 -78.45069 35139 ft 516 kts 357°
2026-05-03 23:07 30.92071 -78.43920 35146 ft 516 kts 357°
2026-05-03 23:07 30.99198 -78.42755 35145 ft 516 kts 357°
2026-05-03 23:08 31.06271 -78.41588 35146 ft 517 kts 358°
2026-05-03 23:08 31.13388 -78.40413 35149 ft 516 kts 358°
2026-05-03 23:09 31.20512 -78.39256 35150 ft 517 kts 358°
2026-05-03 23:09 31.27638 -78.38094 35186 ft 517 kts 358°
2026-05-03 23:10 31.34779 -78.36917 35153 ft 519 kts 358°
2026-05-03 23:10 31.41937 -78.35733 35152 ft 519 kts 358°
2026-05-03 23:11 31.49093 -78.34544 35152 ft 519 kts 358°
2026-05-03 23:11 31.56247 -78.33359 35164 ft 519 kts 358°
2026-05-03 23:12 31.63352 -78.32186 35153 ft 519 kts 358°
2026-05-03 23:12 31.70497 -78.31002 35158 ft 519 kts 358°
2026-05-03 23:13 31.77641 -78.29816 35159 ft 518 kts 358°
2026-05-03 23:13 31.84787 -78.28630 35151 ft 519 kts 358°
2026-05-03 23:14 31.91935 -78.27431 35161 ft 519 kts 358°
2026-05-03 23:14 31.99088 -78.26232 35157 ft 519 kts 358°
2026-05-03 23:15 32.06240 -78.25073 35160 ft 518 kts 358°
2026-05-03 23:15 32.13393 -78.24033 35158 ft 517 kts 356°
2026-05-03 23:16 32.20546 -78.23042 35161 ft 518 kts 356°
2026-05-03 23:16 32.27708 -78.22016 35160 ft 519 kts 357°
2026-05-03 23:17 32.34872 -78.20952 35191 ft 519 kts 357°
2026-05-03 23:17 32.42033 -78.19886 35164 ft 518 kts 357°
2026-05-03 23:18 32.49192 -78.18829 35167 ft 518 kts 357°
2026-05-03 23:18 32.56350 -78.17785 35163 ft 518 kts 357°
2026-05-03 23:19 32.63461 -78.16744 35153 ft 517 kts 356°
2026-05-03 23:19 32.70603 -78.15689 35160 ft 517 kts 356°
2026-05-03 23:20 32.77744 -78.14630 35161 ft 517 kts 356°
2026-05-03 23:20 32.84882 -78.13569 35158 ft 517 kts 356°
2026-05-03 23:21 32.92018 -78.12518 35158 ft 517 kts 356°
2026-05-03 23:21 32.99160 -78.11457 35157 ft 517 kts 357°
2026-05-03 23:22 33.09865 -78.09853 35158 ft 517 kts 357°
2026-05-03 23:22 33.16984 -78.08796 35148 ft 514 kts 356°
2026-05-03 23:23 33.24068 -78.07741 35147 ft 513 kts 356°
2026-05-03 23:23 33.31148 -78.06687 35146 ft 512 kts 356°
2026-05-03 23:24 33.38222 -78.05629 35168 ft 512 kts 356°
2026-05-03 23:24 33.45303 -78.04562 35140 ft 511 kts 356°
2026-05-03 23:25 33.51163 -78.03676 35144 ft 510 kts 356°
2026-05-03 23:25 33.58211 -78.02606 35139 ft 510 kts 356°
2026-05-03 23:26 33.66403 -78.01365 35127 ft 508 kts 356°
2026-05-03 23:26 33.72266 -78.00483 35133 ft 506 kts 356°
2026-05-03 23:27 33.79247 -77.99433 35114 ft 506 kts 356°
2026-05-03 23:27 33.86234 -77.98373 35110 ft 506 kts 356°
2026-05-03 23:28 33.93144 -77.97944 35100 ft 493 kts 350°
2026-05-03 23:28 33.99995 -77.97701 35110 ft 492 kts 350°
2026-05-03 23:29 34.06847 -77.97462 35110 ft 492 kts 350°
2026-05-03 23:29 34.13684 -77.97223 35110 ft 492 kts 350°
2026-05-03 23:30 34.20475 -77.96975 35109 ft 490 kts 351°
2026-05-03 23:30 34.27288 -77.96721 35109 ft 489 kts 351°
2026-05-03 23:31 34.34089 -77.96482 35114 ft 489 kts 351°